| time (UTC) | temp F | wind direction | speed MPH | gust MPH | rain 1hr in | rain 24hr in | rain mn in | humidity % | barometer mb |
| 20260504050537 | 54 | 196 | 2.0 | 6.0 | 0.00 | 0.00 | 0.00 | 55 | 1008.4 |
| 20260504045552 | 54 | 194 | 3.0 | 5.0 | 0.00 | 0.00 | 0.00 | 54 | 1008.6 |
| 20260504045037 | 55 | 185 | 3.0 | 7.0 | 0.00 | 0.00 | 0.00 | 54 | 1008.5 |
| 20260504044549 | 55 | 198 | 4.0 | 7.0 | 0.00 | 0.00 | 0.00 | 54 | 1008.6 |
| 20260504044046 | 55 | 196 | 3.0 | 6.0 | 0.00 | 0.00 | 0.00 | 53 | 1008.6 |
| 20260504043556 | 55 | 196 | 3.0 | 8.0 | 0.00 | 0.00 | 0.00 | 54 | 1008.6 |
| 20260504043046 | 55 | 161 | 4.0 | 8.0 | 0.00 | 0.00 | 0.00 | 53 | 1008.6 |
| 20260504042528 | 55 | 196 | 5.0 | 9.0 | 0.00 | 0.00 | 0.00 | 53 | 1008.6 |
| 20260504042045 | 55 | 195 | 3.0 | 7.0 | 0.00 | 0.00 | 0.00 | 53 | 1008.5 |
| 20260504041526 | 56 | 202 | 4.0 | 8.0 | 0.00 | 0.00 | 0.00 | 53 | 1008.6 |
| 20260504041047 | 56 | 199 | 4.0 | 8.0 | 0.00 | 0.00 | 0.00 | 53 | 1008.6 |
| 20260504040544 | 56 | 205 | 3.0 | 7.0 | 0.00 | 0.00 | 0.00 | 53 | 1008.5 |
| 20260504040030 | 56 | 185 | 3.0 | 5.0 | 0.00 | 0.00 | 0.00 | 53 | 1008.5 |
| 20260504035541 | 56 | 194 | 3.0 | 5.0 | 0.00 | 0.00 | 0.00 | 53 | 1008.5 |
| 20260504035109 | 56 | 190 | 3.0 | 7.0 | 0.00 | 0.00 | 0.00 | 53 | 1008.4 |
| 20260504034537 | 56 | 205 | 3.0 | 7.0 | 0.00 | 0.00 | 0.00 | 53 | 1008.5 |
| 20260504034044 | 56 | 187 | 2.0 | 5.0 | 0.00 | 0.00 | 0.00 | 53 | 1008.4 |
| 20260504033611 | 56 | 198 | 2.0 | 6.0 | 0.00 | 0.00 | 0.00 | 53 | 1008.4 |
| 20260504033025 | 56 | 202 | 3.0 | 8.0 | 0.00 | 0.00 | 0.00 | 53 | 1008.5 |
| 20260504032615 | 56 | 223 | 3.0 | 8.0 | 0.00 | 0.00 | 0.00 | 52 | 1008.5 |
| 20260504032030 | 56 | 202 | 3.0 | 6.0 | 0.00 | 0.00 | 0.00 | 53 | 1008.5 |
| 20260504031541 | 56 | 208 | 3.0 | 6.0 | 0.00 | 0.00 | 0.00 | 53 | 1008.5 |
| 20260504031036 | 56 | 221 | 2.0 | 5.0 | 0.00 | 0.00 | 0.00 | 54 | 1008.5 |
| 20260504030541 | 56 | 222 | 2.0 | 6.0 | 0.00 | 0.00 | 0.00 | 53 | 1008.6 |
| 20260504030039 | 56 | 205 | 3.0 | 6.0 | 0.00 | 0.00 | 0.00 | 53 | 1008.5 |
| 20260504025519 | 56 | 205 | 3.0 | 8.0 | 0.00 | 0.00 | 0.00 | 54 | 1008.6 |
| 20260504025034 | 56 | 202 | 4.0 | 8.0 | 0.00 | 0.00 | 0.00 | 53 | 1008.6 |
| 20260504024518 | 56 | 198 | 2.0 | 7.0 | 0.00 | 0.00 | 0.00 | 54 | 1008.7 |
| 20260504024053 | 55 | 234 | 3.0 | 7.0 | 0.00 | 0.00 | 0.00 | 55 | 1008.7 |
| 20260504023530 | 55 | 218 | 3.0 | 6.0 | 0.00 | 0.00 | 0.00 | 54 | 1008.7 |
| 20260504023110 | 55 | 241 | 3.0 | 6.0 | 0.00 | 0.00 | 0.00 | 55 | 1008.8 |
| 20260504022538 | 55 | 221 | 2.0 | 4.0 | 0.00 | 0.00 | 0.00 | 55 | 1008.9 |
| 20260504022022 | 54 | 256 | 2.0 | 4.0 | 0.00 | 0.00 | 0.00 | 57 | 1009.0 |
| 20260504021537 | 54 | 200 | 0.0 | 2.0 | 0.00 | 0.00 | 0.00 | 56 | 1008.9 |
| 20260504021025 | 54 | 200 | 0.0 | 2.0 | 0.00 | 0.00 | 0.00 | 57 | 1008.9 |
| 20260504020545 | 54 | 200 | 1.0 | 3.0 | 0.00 | 0.00 | 0.00 | 58 | 1008.9 |
| 20260504020059 | 54 | 200 | 2.0 | 3.0 | 0.00 | 0.00 | 0.00 | 57 | 1008.9 |
| 20260504015528 | 54 | 200 | 0.0 | 3.0 | 0.00 | 0.00 | 0.00 | 57 | 1008.9 |
| 20260504015034 | 54 | 200 | 1.0 | 5.0 | 0.00 | 0.00 | 0.00 | 57 | 1008.8 |
| 20260504014525 | 54 | 200 | 3.0 | 5.0 | 0.00 | 0.00 | 0.00 | 56 | 1008.8 |
| 20260504014034 | 54 | 246 | 0.0 | 3.0 | 0.00 | 0.00 | 0.00 | 57 | 1009.0 |
| 20260504013547 | 54 | 188 | 0.0 | 7.0 | 0.00 | 0.00 | 0.00 | 57 | 1009.1 |
| 20260504013052 | 55 | 262 | 2.0 | 7.0 | 0.00 | 0.00 | 0.00 | 57 | 1009.1 |
| 20260504012526 | 55 | 220 | 1.0 | 9.0 | 0.00 | 0.00 | 0.00 | 57 | 1009.3 |
| 20260504012020 | 54 | 241 | 4.0 | 10.0 | 0.00 | 0.00 | 0.00 | 57 | 1009.4 |
| 20260504011534 | 54 | 245 | 4.0 | 11.0 | 0.00 | 0.00 | 0.00 | 57 | 1009.3 |
| 20260504011029 | 54 | 244 | 4.0 | 11.0 | 0.00 | 0.00 | 0.00 | 57 | 1009.3 |
| 20260504010519 | 54 | 221 | 3.0 | 10.0 | 0.00 | 0.00 | 0.00 | 58 | 1009.2 |
| 20260504010038 | 54 | 267 | 2.0 | 7.0 | 0.00 | 0.00 | 0.00 | 59 | 1009.1 |
| 20260504005526 | 54 | 267 | 4.0 | 8.0 | 0.00 | 0.00 | 0.00 | 59 | 1009.3 |
| 20260504005048 | 54 | 218 | 3.0 | 14.0 | 0.00 | 0.00 | 0.00 | 59 | 1009.5 |
| 20260504004609 | 54 | 254 | 7.0 | 14.0 | 0.00 | 0.00 | 0.00 | 58 | 1009.6 |
| 20260504004044 | 55 | 259 | 6.0 | 15.0 | 0.00 | 0.00 | 0.00 | 58 | 1009.7 |
| 20260504003533 | 55 | 311 | 6.0 | 15.0 | 0.00 | 0.00 | 0.00 | 57 | 1009.6 |
| 20260504003027 | 55 | 262 | 3.0 | 11.0 | 0.00 | 0.00 | 0.00 | 57 | 1009.5 |
| 20260504002536 | 55 | 332 | 4.0 | 9.0 | 0.00 | 0.00 | 0.00 | 56 | 1009.3 |
| 20260504002026 | 55 | 220 | 4.0 | 14.0 | 0.00 | 0.00 | 0.00 | 55 | 1009.4 |
| 20260504001540 | 55 | 227 | 5.0 | 14.0 | 0.00 | 0.00 | 0.00 | 54 | 1009.3 |
| 20260504001031 | 55 | 266 | 3.0 | 10.0 | 0.00 | 0.00 | 0.00 | 54 | 1009.1 |
| 20260504000538 | 55 | 248 | 4.0 | 10.0 | 0.00 | 0.00 | 0.00 | 53 | 1009.0 |
| 20260504000046 | 55 | 254 | 5.0 | 10.0 | 0.00 | 0.00 | 0.00 | 53 | 1009.0 |
| 20260503235523 | 56 | 271 | 5.0 | 25.0 | 0.00 | 0.00 | 0.00 | 52 | 1009.1 |
| 20260503235048 | 56 | 218 | 9.0 | 25.0 | 0.00 | 0.00 | 0.00 | 52 | 1009.1 |
| 20260503234541 | 56 | 236 | 15.0 | 26.0 | 0.00 | 0.00 | 0.00 | 51 | 1009.1 |
| 20260503234049 | 56 | 275 | 7.0 | 22.0 | 0.00 | 0.00 | 0.00 | 51 | 1009.2 |
| 20260503233523 | 57 | 258 | 8.0 | 16.0 | 0.00 | 0.00 | 0.00 | 50 | 1009.0 |
| 20260503233048 | 57 | 263 | 8.0 | 16.0 | 0.00 | 0.00 | 0.00 | 50 | 1009.0 |
| 20260503232537 | 57 | 237 | 6.0 | 16.0 | 0.00 | 0.00 | 0.00 | 50 | 1008.9 |
| 20260503232042 | 57 | 233 | 6.0 | 14.0 | 0.00 | 0.00 | 0.00 | 48 | 1008.8 |
| 20260503231524 | 57 | 235 | 7.0 | 14.0 | 0.00 | 0.00 | 0.00 | 47 | 1008.7 |
| 20260503231108 | 57 | 221 | 5.0 | 16.0 | 0.00 | 0.00 | 0.00 | 47 | 1008.7 |
| 20260503230537 | 57 | 244 | 5.0 | 12.0 | 0.00 | 0.00 | 0.00 | 46 | 1008.7 |
| 20260503230032 | 58 | 242 | 4.0 | 17.0 | 0.00 | 0.00 | 0.00 | 46 | 1008.7 |
| 20260503225540 | 58 | 261 | 7.0 | 17.0 | 0.00 | 0.01 | 0.00 | 44 | 1008.5 |
| 20260503225041 | 57 | 254 | 4.0 | 12.0 | 0.00 | 0.01 | 0.00 | 45 | 1008.5 |
| 20260503224545 | 57 | 209 | 5.0 | 11.0 | 0.00 | 0.01 | 0.00 | 46 | 1008.4 |
| 20260503224047 | 57 | 182 | 2.0 | 10.0 | 0.00 | 0.01 | 0.00 | 47 | 1008.5 |
| 20260503223553 | 57 | 255 | 4.0 | 10.0 | 0.00 | 0.01 | 0.00 | 46 | 1008.4 |
| 20260503223025 | 57 | 271 | 2.0 | 11.0 | 0.00 | 0.01 | 0.00 | 47 | 1008.6 |
| 20260503222554 | 57 | 262 | 4.0 | 12.0 | 0.00 | 0.01 | 0.00 | 47 | 1008.7 |
| 20260503222024 | 57 | 275 | 6.0 | 14.0 | 0.00 | 0.01 | 0.00 | 45 | 1008.7 |
| 20260503221555 | 58 | 253 | 6.0 | 14.0 | 0.00 | 0.01 | 0.00 | 46 | 1008.7 |
| 20260503221024 | 58 | 293 | 5.0 | 12.0 | 0.00 | 0.01 | 0.00 | 46 | 1008.8 |
| 20260503220539 | 58 | 262 | 6.0 | 13.0 | 0.00 | 0.01 | 0.00 | 44 | 1008.8 |
| 20260503220028 | 58 | 277 | 7.0 | 14.0 | 0.00 | 0.01 | 0.00 | 44 | 1008.8 |
| 20260503215534 | 58 | 254 | 7.0 | 16.0 | 0.00 | 0.01 | 0.00 | 44 | 1008.8 |
| 20260503215028 | 58 | 259 | 5.0 | 14.0 | 0.00 | 0.01 | 0.00 | 44 | 1008.8 |
| 20260503214539 | 58 | 246 | 7.0 | 14.0 | 0.00 | 0.01 | 0.00 | 44 | 1008.8 |
| 20260503214037 | 58 | 248 | 5.0 | 18.0 | 0.00 | 0.01 | 0.00 | 43 | 1008.7 |
| 20260503213542 | 59 | 240 | 7.0 | 18.0 | 0.00 | 0.01 | 0.00 | 42 | 1008.5 |
| 20260503213033 | 59 | 286 | 5.0 | 17.0 | 0.00 | 0.01 | 0.00 | 44 | 1008.5 |
| 20260503212524 | 59 | 261 | 4.0 | 9.0 | 0.00 | 0.01 | 0.00 | 44 | 1008.6 |
| 20260503212025 | 59 | 259 | 3.0 | 14.0 | 0.00 | 0.01 | 0.00 | 45 | 1008.5 |
| 20260503211534 | 59 | 257 | 4.0 | 15.0 | 0.00 | 0.01 | 0.00 | 43 | 1008.4 |
| 20260503211053 | 59 | 256 | 3.0 | 15.0 | 0.00 | 0.01 | 0.00 | 43 | 1008.4 |
| 20260503210526 | 59 | 244 | 5.0 | 10.0 | 0.00 | 0.01 | 0.00 | 43 | 1008.5 |
| 20260503210034 | 59 | 221 | 3.0 | 10.0 | 0.00 | 0.01 | 0.00 | 43 | 1008.4 |
| 20260503205529 | 59 | 230 | 4.0 | 7.0 | 0.00 | 0.01 | 0.00 | 43 | 1008.6 |
| 20260503205102 | 59 | 233 | 2.0 | 6.0 | 0.00 | 0.01 | 0.00 | 45 | 1008.7 |
| 20260503204542 | 59 | 219 | 2.0 | 7.0 | 0.00 | 0.01 | 0.00 | 42 | 1008.8 |
| 20260503204055 | 59 | 241 | 3.0 | 9.0 | 0.00 | 0.01 | 0.00 | 44 | 1008.7 |
| 20260503203521 | 59 | 223 | 4.0 | 15.0 | 0.00 | 0.01 | 0.00 | 42 | 1008.8 |
| 20260503203038 | 59 | 244 | 6.0 | 15.0 | 0.00 | 0.01 | 0.00 | 40 | 1008.9 |
| 20260503202536 | 58 | 240 | 5.0 | 8.0 | 0.00 | 0.01 | 0.00 | 45 | 1008.9 |
| 20260503202036 | 58 | 256 | 3.0 | 10.0 | 0.00 | 0.01 | 0.00 | 46 | 1009.0 |
| 20260503201617 | 58 | 244 | 3.0 | 11.0 | 0.00 | 0.01 | 0.00 | 45 | 1009.1 |
| 20260503201050 | 58 | 255 | 2.0 | 10.0 | 0.00 | 0.01 | 0.00 | 46 | 1009.3 |
| 20260503200529 | 58 | 202 | 3.0 | 13.0 | 0.00 | 0.01 | 0.00 | 46 | 1009.4 |
| 20260503200028 | 57 | 281 | 5.0 | 13.0 | 0.00 | 0.01 | 0.00 | 44 | 1009.5 |
| 20260503195539 | 58 | 257 | 4.0 | 9.0 | 0.00 | 0.01 | 0.00 | 44 | 1009.5 |
| 20260503195026 | 57 | 267 | 4.0 | 10.0 | 0.00 | 0.01 | 0.00 | 47 | 1009.6 |
| 20260503194552 | 57 | 252 | 3.0 | 11.0 | 0.00 | 0.01 | 0.00 | 45 | 1009.7 |
| 20260503194033 | 57 | 236 | 5.0 | 11.0 | 0.00 | 0.01 | 0.00 | 44 | 1009.7 |
| 20260503193527 | 57 | 239 | 4.0 | 11.0 | 0.00 | 0.01 | 0.00 | 43 | 1009.8 |
| 20260503193039 | 57 | 205 | 4.0 | 9.0 | 0.00 | 0.01 | 0.00 | 47 | 1010.0 |
| 20260503192608 | 56 | 271 | 4.0 | 14.0 | 0.00 | 0.01 | 0.00 | 45 | 1010.0 |
| 20260503192025 | 56 | 236 | 6.0 | 17.0 | 0.00 | 0.01 | 0.00 | 44 | 1010.1 |
| 20260503191552 | 56 | 263 | 8.0 | 15.0 | 0.00 | 0.01 | 0.00 | 43 | 1010.2 |
| 20260503191025 | 56 | 271 | 7.0 | 14.0 | 0.00 | 0.01 | 0.00 | 45 | 1010.2 |
| 20260503190534 | 56 | 267 | 6.0 | 14.0 | 0.00 | 0.01 | 0.00 | 45 | 1010.4 |
| 20260503190039 | 56 | 229 | 4.0 | 11.0 | 0.00 | 0.01 | 0.00 | 44 | 1010.3 |
| 20260503185525 | 56 | 224 | 5.0 | 14.0 | 0.00 | 0.01 | 0.00 | 44 | 1010.3 |
| 20260503185048 | 56 | 240 | 5.0 | 14.0 | 0.00 | 0.01 | 0.00 | 44 | 1010.5 |
| 20260503184529 | 55 | 241 | 7.0 | 12.0 | 0.00 | 0.01 | 0.00 | 44 | 1010.6 |
| 20260503184050 | 55 | 232 | 6.0 | 13.0 | 0.00 | 0.01 | 0.00 | 48 | 1010.8 |
| 20260503183537 | 55 | 239 | 5.0 | 21.0 | 0.00 | 0.01 | 0.00 | 49 | 1010.8 |
| 20260503183059 | 55 | 311 | 3.0 | 14.0 | 0.00 | 0.01 | 0.00 | 51 | 1010.8 |
| 20260503182543 | 55 | 315 | 6.0 | 15.0 | 0.00 | 0.01 | 0.00 | 47 | 1010.8 |
| 20260503182040 | 55 | 294 | 8.0 | 15.0 | 0.00 | 0.01 | 0.00 | 45 | 1010.8 |
| 20260503181535 | 56 | 292 | 5.0 | 14.0 | 0.00 | 0.01 | 0.00 | 48 | 1010.9 |
| 20260503181023 | 56 | 5 | 4.0 | 14.0 | 0.00 | 0.01 | 0.00 | 48 | 1010.7 |
| 20260503180554 | 56 | 286 | 6.0 | 10.0 | 0.00 | 0.01 | 0.00 | 47 | 1010.8 |
| 20260503180028 | 55 | 311 | 5.0 | 12.0 | 0.00 | 0.01 | 0.00 | 49 | 1010.9 |
| 20260503175546 | 55 | 312 | 5.0 | 19.0 | 0.00 | 0.01 | 0.00 | 48 | 1011.0 |
| 20260503175045 | 56 | 308 | 9.0 | 19.0 | 0.00 | 0.01 | 0.00 | 48 | 1011.0 |
| 20260503174533 | 55 | 258 | 5.0 | 14.0 | 0.00 | 0.01 | 0.00 | 49 | 1011.0 |
| 20260503174026 | 56 | 238 | 4.0 | 13.0 | 0.00 | 0.01 | 0.00 | 49 | 1011.0 |
| 20260503173534 | 56 | 258 | 5.0 | 17.0 | 0.00 | 0.01 | 0.00 | 48 | 1011.0 |
| 20260503173048 | 56 | 273 | 4.0 | 17.0 | 0.00 | 0.01 | 0.00 | 51 | 1011.1 |
| 20260503172545 | 55 | 245 | 6.0 | 13.0 | 0.00 | 0.01 | 0.00 | 48 | 1011.1 |
| 20260503172045 | 55 | 277 | 4.0 | 16.0 | 0.00 | 0.01 | 0.00 | 50 | 1011.2 |
| 20260503171559 | 55 | 249 | 8.0 | 16.0 | 0.00 | 0.01 | 0.00 | 48 | 1011.2 |
| 20260503171103 | 55 | 233 | 4.0 | 12.0 | 0.00 | 0.01 | 0.00 | 52 | 1011.2 |
| 20260503170607 | 54 | 185 | 5.0 | 12.0 | 0.00 | 0.01 | 0.00 | 49 | 1011.2 |
| 20260503150525 | 51 | 293 | 3.0 | 7.0 | 0.00 | 0.01 | 0.00 | 51 | 1012.8 |
| 20260503131050 | 47 | 262 | 3.0 | 10.0 | 0.00 | 0.01 | 0.00 | 58 | 1013.7 |
| 20260503130523 | 46 | 251 | 3.0 | 7.0 | 0.00 | 0.01 | 0.00 | 59 | 1013.8 |
| 20260503110536 | 38 | 254 | 0.0 | 3.0 | 0.00 | 0.01 | 0.00 | 83 | 1013.5 |
| 20260503081555 | 38 | 250 | 0.0 | 0.0 | 0.00 | 0.02 | 0.00 | 80 | 1013.2 |
| 20260503081030 | 38 | 255 | 0.0 | 0.0 | 0.00 | 0.02 | 0.00 | 80 | 1013.3 |
| 20260503080526 | 38 | 255 | 0.0 | 0.0 | 0.00 | 0.02 | 0.00 | 80 | 1013.3 |
| 20260503072539 | 39 | 255 | 0.0 | 0.0 | 0.00 | 0.02 | 0.00 | 78 | 1013.2 |
| 20260503072027 | 39 | 255 | 0.0 | 0.0 | 0.00 | 0.02 | 0.00 | 78 | 1013.2 |
| 20260503071547 | 39 | 255 | 0.0 | 0.0 | 0.00 | 0.02 | 0.00 | 78 | 1013.3 |
| 20260503071030 | 39 | 255 | 0.0 | 0.0 | 0.00 | 0.02 | 0.00 | 77 | 1013.3 |
| 20260503070536 | 40 | 255 | 0.0 | 0.0 | 0.00 | 0.02 | 0.00 | 77 | 1013.2 |
| 20260503055034 | 41 | 252 | 2.0 | 6.0 | 0.00 | 0.02 | 0.00 | 77 | 1013.4 |
| 20260503054526 | 41 | 223 | 0.0 | 3.0 | 0.00 | 0.02 | 0.00 | 77 | 1013.4 |
| 20260503054023 | 41 | 251 | 1.0 | 4.0 | 0.00 | 0.02 | 0.00 | 77 | 1013.4 |
| 20260503053541 | 41 | 265 | 1.0 | 4.0 | 0.00 | 0.02 | 0.00 | 77 | 1013.5 |
| 20260503053044 | 41 | 236 | 1.0 | 3.0 | 0.00 | 0.02 | 0.00 | 77 | 1013.5 |